Weather History for PADK - April, 2013

Change the Weather History Date:

Sunday, April 28, 2013

  Actual Average Record
Temperature  
Mean Temperature 38 °F -  
Max Temperature 42 °F 42 °F 50 °F (1965)
Min Temperature 35 °F 33 °F 27 °F (1979)
Degree Days  
Heating Degree Days 26    
Moisture  
Dew Point 30 °F    
Average Humidity 71    
Maximum Humidity 81    
Minimum Humidity 49    
Precipitation  
Precipitation 0.00 in - - ()
Sea Level Pressure  
Sea Level Pressure 30.44 in    
Wind  
Wind Speed 13 mph (ENE)    
Max Wind Speed 23 mph    
Max Gust Speed 29 mph    
Visibility 10 miles    
Events      
Averages and records for this station are not official NWS values.
T = Trace of Precipitation, MM = Missing Value Source: NWS Daily Summary

Daily Weather History Graph

Daily Weather History Graph

Search for Another Location

Airport or City:

Trip Planner

Search our weather history database for the weather conditions in past years. The results will help you decide how hot, cold, wet, or windy it might be!

Date:

Astronomy

Apr. 28, 2013 Rise Set
Actual Time 7:22 AM HDT 10:07 PM HDT
Civil Twilight 6:43 AM HDT 10:45 PM HDT
Nautical Twilight 5:54 AM HDT 11:34 PM HDT
Astronomical Twilight 4:54 AM HDT 12:36 AM HDT
Moon 1:04 AM HDT (4/28) 9:39 AM HDT (4/28)
Length of Visible Light 16h 01m
Length of Day
14h 45m
Waning Gibbous, 87% of the Moon is Illuminated
Apr 28
Waning Gibbous
May 2
Last Quarter
May 9
New
May 17
First Quarter
May 24
Full

Hourly Weather History & Observations

Time (HDT) Temp. Windchill Dew Point Humidity Pressure Visibility Wind Dir Wind Speed Gust Speed Precip Events Conditions
12:16 AM 37.4 °F 31.4 °F 30.2 °F 75% 30.49 in 10.0 mi ENE 8.1 mph - N/A   Overcast
12:36 AM 37.4 °F 31.4 °F 30.2 °F 75% 30.49 in 10.0 mi NE 8.1 mph - N/A   Overcast
12:56 AM 37.4 °F 28.5 °F 30.2 °F 75% 30.49 in 10.0 mi East 15.0 mph - N/A   Overcast
1:16 AM 37.4 °F 28.5 °F 30.2 °F 75% 30.49 in 10.0 mi East 15.0 mph - N/A   Overcast
1:36 AM 39.2 °F 30.5 °F 30.2 °F 70% 30.50 in 10.0 mi East 16.1 mph - N/A   Overcast
1:56 AM 39.2 °F 31.2 °F 30.2 °F 70% 30.50 in 10.0 mi ESE 13.8 mph - N/A   Overcast
2:16 AM 39.2 °F 32.5 °F 32.0 °F 75% 30.49 in 10.0 mi East 10.4 mph - N/A   Overcast
2:36 AM 37.4 °F 29.8 °F 30.2 °F 75% 30.49 in 10.0 mi NE 11.5 mph - N/A   Overcast
2:56 AM 37.4 °F 30.8 °F 30.2 °F 75% 30.49 in 10.0 mi ENE 9.2 mph - N/A   Overcast
3:16 AM 37.4 °F 31.4 °F 30.2 °F 75% 30.48 in 10.0 mi ENE 8.1 mph - N/A   Overcast
3:36 AM 37.4 °F 32.8 °F 30.2 °F 75% 30.49 in 10.0 mi East 5.8 mph - N/A   Overcast
3:56 AM 37.4 °F - 30.2 °F 75% 30.48 in 10.0 mi Calm Calm - N/A   Overcast
4:16 AM 37.4 °F 33.8 °F 30.2 °F 75% 30.48 in 10.0 mi ENE 4.6 mph - N/A   Overcast
4:36 AM 37.4 °F 33.8 °F 30.2 °F 75% 30.48 in 10.0 mi NE 4.6 mph - N/A   Overcast
4:56 AM 37.4 °F 33.8 °F 30.2 °F 75% 30.48 in 10.0 mi North 4.6 mph - N/A   Overcast
5:16 AM 37.4 °F 30.3 °F 30.2 °F 75% 30.48 in 10.0 mi ENE 10.4 mph - N/A   Overcast
5:36 AM 37.4 °F 31.4 °F 30.2 °F 75% 30.47 in 10.0 mi East 8.1 mph - N/A   Overcast
5:56 AM 39.2 °F 33.0 °F 30.2 °F 70% 30.48 in 10.0 mi East 9.2 mph - N/A   Overcast
6:16 AM 39.2 °F 32.0 °F 30.2 °F 70% 30.48 in 10.0 mi ENE 11.5 mph - N/A   Overcast
6:36 AM 37.4 °F 30.8 °F 30.2 °F 75% 30.47 in 10.0 mi ENE 9.2 mph - N/A   Overcast
6:56 AM 37.4 °F 29.8 °F 30.2 °F 75% 30.47 in 10.0 mi NE 11.5 mph - N/A   Overcast
7:16 AM 37.4 °F 29.8 °F 30.2 °F 75% 30.47 in 10.0 mi NNE 11.5 mph - N/A   Overcast
7:36 AM 37.4 °F 31.4 °F 30.2 °F 75% 30.47 in 10.0 mi North 8.1 mph - N/A   Overcast
7:56 AM 37.4 °F 30.3 °F 30.2 °F 75% 30.47 in 10.0 mi NNE 10.4 mph - N/A   Overcast
8:16 AM 37.4 °F 28.9 °F 30.2 °F 75% 30.46 in 10.0 mi NNE 13.8 mph - N/A   Overcast
8:36 AM 37.4 °F 29.3 °F 30.2 °F 75% 30.46 in 10.0 mi NNE 12.7 mph - N/A   Overcast
8:56 AM 37.4 °F 28.9 °F 30.2 °F 75% 30.46 in 10.0 mi NE 13.8 mph - N/A   Overcast
9:16 AM 37.4 °F 28.5 °F 30.2 °F 75% 30.47 in 10.0 mi NNE 15.0 mph - N/A   Overcast
9:36 AM 37.4 °F 28.9 °F 30.2 °F 75% 30.47 in 10.0 mi NNE 13.8 mph - N/A   Overcast
9:56 AM 37.4 °F 29.8 °F 28.4 °F 70% 30.47 in 10.0 mi NNE 11.5 mph - N/A   Overcast
10:16 AM 37.4 °F 29.3 °F 30.2 °F 75% 30.47 in 10.0 mi NE 12.7 mph - N/A   Overcast
10:36 AM 37.4 °F 30.8 °F 30.2 °F 75% 30.47 in 10.0 mi NNE 9.2 mph - N/A   Overcast
10:56 AM 37.4 °F 26.9 °F 30.2 °F 75% 30.48 in 10.0 mi East 20.7 mph - N/A   Overcast
11:16 AM 37.4 °F 26.9 °F 30.2 °F 75% 30.48 in 10.0 mi East 20.7 mph - N/A   Overcast
11:36 AM 37.4 °F 27.2 °F 32.0 °F 81% 30.47 in 10.0 mi East 19.6 mph - N/A   Overcast
11:56 AM 37.4 °F 26.9 °F 30.2 °F 75% 30.48 in 10.0 mi East 20.7 mph - N/A   Overcast
12:16 PM 39.2 °F 29.0 °F 30.2 °F 70% 30.47 in 10.0 mi East 21.9 mph - N/A   Overcast
12:36 PM 39.2 °F 29.6 °F 30.2 °F 70% 30.47 in 10.0 mi East 19.6 mph - N/A   Overcast
12:56 PM 41.0 °F 31.4 °F 32.0 °F 70% 30.47 in 10.0 mi East 21.9 mph - N/A   Overcast
1:16 PM 41.0 °F 31.9 °F 30.2 °F 65% 30.46 in 10.0 mi East 19.6 mph - N/A   Overcast
1:36 PM 41.0 °F 32.8 °F 30.2 °F 65% 30.46 in 10.0 mi East 16.1 mph - N/A   Mostly Cloudy
1:56 PM 41.0 °F 32.5 °F 30.2 °F 65% 30.45 in 10.0 mi ENE 17.3 mph - N/A   Partly Cloudy
2:16 PM 42.8 °F 34.8 °F 32.0 °F 66% 30.45 in 10.0 mi East 17.3 mph - N/A   Clear
2:36 PM 42.8 °F 34.0 °F 32.0 °F 66% 30.45 in 10.0 mi East 20.7 mph - N/A   Clear
2:56 PM 42.8 °F 34.3 °F 30.2 °F 61% 30.45 in 10.0 mi East 19.6 mph - N/A   Clear
3:16 PM 42.8 °F 34.5 °F 30.2 °F 61% 30.44 in 10.0 mi East 18.4 mph - N/A   Clear
3:36 PM 42.8 °F 35.4 °F 32.0 °F 66% 30.44 in 10.0 mi East 15.0 mph - N/A   Clear
3:56 PM 42.8 °F 36.2 °F 32.0 °F 66% 30.43 in 10.0 mi East 12.7 mph - N/A   Partly Cloudy
4:16 PM 41.0 °F 35.2 °F 32.0 °F 70% 30.43 in 10.0 mi East 9.2 mph - N/A   Mostly Cloudy
4:36 PM 42.8 °F 36.2 °F 30.2 °F 61% 30.42 in 10.0 mi East 12.7 mph - N/A   Overcast
4:56 PM 42.8 °F 35.8 °F 32.0 °F 66% 30.41 in 10.0 mi East 13.8 mph - N/A   Scattered Clouds
5:16 PM 42.8 °F 36.2 °F 30.2 °F 61% 30.41 in 10.0 mi East 12.7 mph - N/A   Mostly Cloudy
5:36 PM 41.0 °F 33.1 °F 30.2 °F 65% 30.40 in 10.0 mi ENE 15.0 mph - N/A   Overcast
5:56 PM 41.0 °F 33.1 °F 30.2 °F 65% 30.39 in 10.0 mi NE 15.0 mph - N/A   Overcast
6:16 PM 42.8 °F 34.3 °F 30.2 °F 61% 30.39 in 10.0 mi North 19.6 mph 23.0 mph N/A   Mostly Cloudy
6:36 PM 42.8 °F 35.8 °F 30.2 °F 61% 30.38 in 10.0 mi North 13.8 mph - N/A   Mostly Cloudy
6:56 PM 41.0 °F 33.9 °F 32.0 °F 70% 30.39 in 10.0 mi East 12.7 mph - N/A   Overcast
7:16 PM 39.2 °F 29.6 °F 30.2 °F 70% 30.39 in 10.0 mi NE 19.6 mph - N/A   Overcast
7:36 PM 37.4 °F 27.2 °F 28.4 °F 70% 30.39 in 10.0 mi NE 19.6 mph - N/A   Mostly Cloudy
7:56 PM 37.4 °F 27.2 °F 28.4 °F 70% 30.38 in 10.0 mi NNE 19.6 mph 27.6 mph N/A   Mostly Cloudy
8:16 PM 37.4 °F 26.4 °F 30.2 °F 75% 30.38 in 10.0 mi NNE 23.0 mph 28.8 mph N/A   Scattered Clouds
8:36 PM 37.4 °F 26.6 °F 30.2 °F 75% 30.38 in 10.0 mi NE 21.9 mph 28.8 mph N/A   Mostly Cloudy
8:56 PM 37.4 °F 27.2 °F 30.2 °F 75% 30.38 in 10.0 mi NE 19.6 mph 25.3 mph N/A   Overcast
9:16 PM 35.6 °F 24.5 °F 28.4 °F 75% 30.38 in 10.0 mi NE 20.7 mph 25.3 mph N/A   Overcast
9:36 PM 35.6 °F 24.5 °F 28.4 °F 75% 30.37 in 10.0 mi NNE 20.7 mph 26.5 mph N/A   Overcast
9:56 PM 35.6 °F 27.5 °F 28.4 °F 75% 30.37 in 10.0 mi NNE 11.5 mph - N/A   Overcast
10:16 PM 37.4 °F 28.5 °F 30.2 °F 75% 30.38 in 10.0 mi NE 15.0 mph - N/A   Overcast
10:36 PM 35.6 °F 24.8 °F 28.4 °F 75% 30.37 in 10.0 mi NNE 19.6 mph - N/A   Overcast
10:56 PM 35.6 °F 24.8 °F 28.4 °F 75% 30.36 in 10.0 mi NNE 19.6 mph 26.5 mph N/A   Scattered Clouds
11:16 PM 35.6 °F 25.2 °F 30.2 °F 81% 30.37 in 10.0 mi East 18.4 mph 24.2 mph N/A   Scattered Clouds
11:36 PM 35.6 °F 26.6 °F 30.2 °F 81% 30.36 in 10.0 mi NE 13.8 mph 18.4 mph N/A   Mostly Cloudy
11:56 PM 35.6 °F 26.2 °F 28.4 °F 75% 30.35 in 10.0 mi NNE 15.0 mph - N/A   Overcast